Weather History for Fort Lauderdale, FL

Change the Weather History Date:

Sunday, December 9, 2012

  Actual Average Record
Temperature  
Mean Temperature 76 °F -  
Max Temperature 82 °F 79 °F 87 °F (1948)
Min Temperature 71 °F 63 °F 45 °F (1959)
Cooling Degree Days 12    
Growing Degree Days 26 (Base 50)    
Moisture  
Dew Point 72 °F    
Average Humidity 86    
Maximum Humidity 94    
Minimum Humidity 67    
Precipitation  
Precipitation 0.00 in - - ()
Sea Level Pressure  
Sea Level Pressure 30.04 in    
Wind  
Wind Speed 2 mph (SSE)    
Max Wind Speed 9 mph    
Max Gust Speed -    
Visibility 10 miles    
Events      
Averages and records for this station are not official NWS values.
T = Trace of Precipitation, MM = Missing Value Source: NWS Daily Summary

Daily Weather History Graph

Daily Weather History Graph

Search for Another Location

Airport:

Trip Planner

Search our weather history database for the weather conditions in past years. The results will help you decide how hot, cold, wet, or windy it might be!

Date:

Astronomy

Dec. 09, 2012 Rise Set
Actual Time 6:57 AM EST 5:29 PM EST
Civil Twilight 6:31 AM EST 5:54 PM EST
Nautical Twilight 6:03 AM EST 6:23 PM EST
Astronomical Twilight 5:34 AM EST 6:51 PM EST
Moon 2:45 AM EST (12/9) 2:20 PM EST (12/9)
Length of Visible Light 11h 22m
Length of Day
10h 32m
Waning Crescent, 19% of the Moon is Illuminated
Dec 9
Waning Crescent
Dec 13
New
Dec 20
First Quarter
Dec 28
Full
Jan 4
Last Quarter

Hourly Weather History & Observations

Time (EST) Temp. Heat Index Dew Point Humidity Pressure Visibility Wind Dir Wind Speed Gust Speed Precip Events Conditions
12:53 AM 75.9 °F - 72.0 °F 87% 30.03 in 10.0 mi SSE 5.8 mph - N/A   Partly Cloudy
1:24 AM 75.2 °F - 71.6 °F 89% 30.02 in 10.0 mi SE 3.5 mph - N/A   Mostly Cloudy
1:39 AM 75.2 °F - 71.6 °F 89% 30.02 in 10.0 mi SE 3.5 mph - N/A   Mostly Cloudy
1:53 AM 75.9 °F - 72.0 °F 87% 30.03 in 10.0 mi Calm Calm - N/A   Mostly Cloudy
2:08 AM 75.2 °F - 71.6 °F 89% 30.02 in 10.0 mi Calm Calm - N/A   Mostly Cloudy
2:53 AM 73.9 °F - 71.1 °F 91% 30.01 in 10.0 mi Calm Calm - N/A   Mostly Cloudy
3:00 AM 73.4 °F - 71.6 °F 94% 30.01 in 10.0 mi Calm Calm - N/A   Overcast
3:25 AM 73.4 °F - 71.6 °F 94% 30.01 in 10.0 mi Calm Calm - N/A   Scattered Clouds
3:53 AM 73.9 °F - 72.0 °F 93% 30.02 in 10.0 mi Calm Calm - N/A   Scattered Clouds
4:00 AM 73.4 °F - 71.6 °F 94% 30.01 in 10.0 mi Calm Calm - N/A   Overcast
4:35 AM 73.4 °F - 71.6 °F 94% 30.02 in 10.0 mi Calm Calm - N/A   Mostly Cloudy
4:53 AM 73.0 °F - 71.1 °F 93% 30.03 in 10.0 mi NNW 4.6 mph - N/A   Partly Cloudy
5:21 AM 73.4 °F - 69.8 °F 88% 30.02 in 10.0 mi Calm Calm - N/A   Mostly Cloudy
5:53 AM 72.0 °F - 70.0 °F 93% 30.04 in 10.0 mi NW 3.5 mph - N/A   Mostly Cloudy
6:26 AM 71.6 °F - 69.8 °F 94% 30.04 in 10.0 mi Calm Calm - 0.00 in   Partly Cloudy
6:53 AM 71.1 °F - 69.1 °F 93% 30.06 in 10.0 mi Calm Calm - 0.00 in   Clear
7:53 AM 72.0 °F - 70.0 °F 93% 30.07 in 10.0 mi Calm Calm - N/A   Mostly Cloudy
8:01 AM 71.6 °F - 69.8 °F 94% 30.07 in 10.0 mi Calm Calm - N/A   Scattered Clouds
8:53 AM 75.0 °F - 71.1 °F 87% 30.09 in 10.0 mi Calm Calm - N/A   Scattered Clouds
9:53 AM 75.9 °F - 72.0 °F 87% 30.11 in 10.0 mi Calm Calm - N/A   Scattered Clouds
10:53 AM 82.0 °F 86.7 °F 72.0 °F 71% 30.09 in 10.0 mi Calm Calm - N/A   Scattered Clouds
11:53 AM 81.0 °F 84.9 °F 71.1 °F 72% 30.07 in 10.0 mi Calm Calm - N/A   Scattered Clouds
12:53 PM 82.0 °F 86.7 °F 72.0 °F 71% 30.04 in 10.0 mi Variable 3.5 mph - 0.00 in   Scattered Clouds
1:53 PM 82.9 °F 88.0 °F 72.0 °F 69% 30.01 in 10.0 mi SSE 4.6 mph - N/A   Scattered Clouds
2:53 PM 82.9 °F 87.5 °F 71.1 °F 67% 30.01 in 10.0 mi SSE 6.9 mph - N/A   Clear
3:53 PM 82.9 °F 87.5 °F 71.1 °F 67% 30.01 in 10.0 mi SSE 9.2 mph - N/A   Clear
4:53 PM 81.0 °F 85.2 °F 72.0 °F 74% 30.01 in 10.0 mi SSE 4.6 mph - N/A   Clear
5:53 PM 79.0 °F - 73.0 °F 82% 30.02 in 10.0 mi SE 6.9 mph - N/A   Partly Cloudy
6:53 PM 77.0 °F - 73.0 °F 88% 30.04 in 10.0 mi SE 5.8 mph - N/A   Clear
7:53 PM 77.0 °F - 73.0 °F 88% 30.04 in 10.0 mi Calm Calm - N/A   Clear
8:53 PM 75.9 °F - 73.0 °F 91% 30.05 in 10.0 mi Calm Calm - N/A   Clear
9:53 PM 75.9 °F - 73.0 °F 91% 30.05 in 10.0 mi SSE 3.5 mph - N/A   Partly Cloudy
10:53 PM 75.0 °F - 73.0 °F 94% 30.05 in 10.0 mi South 3.5 mph - N/A   Clear
11:53 PM 73.9 °F - 72.0 °F 93% 30.04 in 10.0 mi Calm Calm - N/A   Partly Cloudy